This is the latest recevied weather packets stored in our database for station/object N4MGC. If no packets are shown the sender has not sent any weather packets the latest 10 day(s).
| Time | Temp. | Humidity | Pressure | Rain* | Wind** | Luminosity | Snow |
|---|---|---|---|---|---|---|---|
| 1777905329 | 17.78° C | 73% | 1017.2 hPa | 0 mm | - | 176 W/m² | - |
| 1777905027 | 17.22° C | 75% | 1017.4 hPa | 0 mm | - | 505 W/m² | - |
| 1777904724 | 16.11° C | 75% | 1017.3 hPa | 0 mm | - | 753 W/m² | - |
| 1777904421 | 16.11° C | 75% | 1017.3 hPa | 0 mm | - | 82 W/m² | - |
| 1777904118 | 15.56° C | 78% | 1017.5 hPa | 0 mm | - | 808 W/m² | - |
| 1777903815 | 15° C | 79% | 1017.5 hPa | 0 mm | - | 134 W/m² | - |
| 1777903511 | 14.44° C | 80% | 1017.6 hPa | 0 mm | - | 56 W/m² | - |
| 1777903208 | 14.44° C | 81% | 1017.6 hPa | 0 mm | - | 55 W/m² | - |
| 1777902904 | 13.89° C | 80% | 1017.7 hPa | 0 mm | - | 52 W/m² | - |
| 1777902601 | 13.89° C | 83% | 1017.7 hPa | 0 mm | - | 51 W/m² | - |
| 1777902298 | 13.33° C | 85% | 1017.6 hPa | 0 mm | - | 54 W/m² | - |
| 1777901995 | 12.78° C | 88% | 1017.5 hPa | 0 mm | - | 54 W/m² | - |
| 1777901694 | 12.22° C | 90% | 1017.7 hPa | 0 mm | - | 52 W/m² | - |
| 1777901390 | 11.67° C | 93% | 1017.8 hPa | 0 mm | - | 47 W/m² | - |
| 1777901088 | 11.67° C | 97% | 1017.6 hPa | 0 mm | - | 69 W/m² | - |
| 1777900785 | 11.11° C | 99% | 1017.7 hPa | 0 mm | - | 83 W/m² | - |
| 1777900483 | 10.56° C | 99% | 1017.7 hPa | 0 mm | - | 84 W/m² | - |
| 1777900179 | 10.56° C | 99% | 1017.8 hPa | 0 mm | - | 72 W/m² | - |
| 1777899876 | 10° C | 99% | 1017.9 hPa | 0 mm | - | 75 W/m² | - |
| 1777899572 | 9.44° C | 99% | 1017.7 hPa | 0 mm | - | 70 W/m² | - |
| 1777899270 | 9.44° C | 99% | 1017.6 hPa | 0 mm | - | 75 W/m² | - |
| 1777898967 | 8.89° C | 99% | 1017.7 hPa | 0 mm | - | 72 W/m² | - |
| 1777898664 | 8.33° C | 99% | 1017.6 hPa | 0 mm | - | 72 W/m² | - |
| 1777898361 | 7.78° C | 99% | 1017.8 hPa | 0 mm | - | 70 W/m² | - |
| 1777898059 | 7.78° C | 99% | 1017.6 hPa | 0 mm | - | 53 W/m² | - |
* Rain latest hour (hover to see other rain measurements)
** Current wind speed in m/s (hover to see current wind gust speed)